Weather History for Kansas City International, MO

Change the Weather History Date:

Monday, January 6, 2014

  Actual Average Record
Temperature  
Mean Temperature -3 °F 29 °F  
Max Temperature 4 °F 38 °F 64 °F (1939)
Min Temperature -11 °F 20 °F -13 °F (1912)
Degree Days  
Heating Degree Days 68 36  
Month to date heating degree days 311 216  
Since 1 July heating degree days 2508 2258  
Cooling Degree Days 0 0  
Month to date cooling degree days 0 0  
Year to date cooling degree days 0 0  
Moisture  
Dew Point -15 °F    
Average Humidity 56    
Maximum Humidity 65    
Minimum Humidity 47    
Precipitation  
Precipitation 0.00 in 0.03 in 0.45 in (1916)
Month to date precipitation 0.34 0.20  
Year to date precipitation 0.34 0.20  
Snow  
Snow 0.00 in 0.10 in 5.00 in (1916)
Month to date snowfall 5.0 0.8  
Since 1 July snowfall 10.7 7.0  
Snow Depth 3.00 in    
Sea Level Pressure  
Sea Level Pressure 30.55 in    
Wind  
Wind Speed 11 mph (West)    
Max Wind Speed 22 mph    
Max Gust Speed 28 mph    
Visibility 10 miles    
Events      
T = Trace of Precipitation, MM = Missing Value Source: NWS Daily Summary

Daily Weather History Graph

Daily Weather History Graph

Search for Another Location

Airport:

Trip Planner

Search our weather history database for the weather conditions in past years. The results will help you decide how hot, cold, wet, or windy it might be!

Date:

Astronomy

Jan. 06, 2014 Rise Set
Actual Time 7:38 AM CST 5:10 PM CST
Civil Twilight 7:09 AM CST 5:40 PM CST
Nautical Twilight 6:35 AM CST 6:14 PM CST
Astronomical Twilight 6:03 AM CST 6:46 PM CST
Moon 10:57 AM CST (1/6) 11:42 PM CST (1/6)
Length of Visible Light 10h 31m
Length of Day
9h 32m
Waxing Crescent, 35% of the Moon is Illuminated
Jan 6
Waxing Crescent
Jan 7
First Quarter
Jan 15
Full
Jan 23
Last Quarter
Jan 30
New

Hourly Weather History & Observations

Time (CST) Temp. Windchill Dew Point Humidity Pressure Visibility Wind Dir Wind Speed Gust Speed Precip Events Conditions
12:53 AM -5.1 °F -28.4 °F -20.0 °F 49% 30.56 in 10.0 mi NW 19.6 mph 25.3 mph N/A   Clear
1:53 AM -6.0 °F -27.0 °F -20.9 °F 49% 30.58 in 10.0 mi NW 15.0 mph - N/A   Clear
2:53 AM -8.0 °F -21.0 °F -20.9 °F 53% 30.59 in 10.0 mi WNW 5.8 mph - N/A   Partly Cloudy
3:53 AM -9.9 °F -23.4 °F -20.9 °F 59% 30.60 in 10.0 mi West 5.8 mph - N/A   Clear
4:53 AM -9.0 °F -23.8 °F -20.0 °F 59% 30.58 in 10.0 mi West 6.9 mph - N/A   Clear
5:53 AM -9.9 °F -27.5 °F -20.9 °F 59% 30.57 in 10.0 mi West 9.2 mph - N/A   Clear
6:53 AM -9.9 °F -26.3 °F -20.0 °F 61% 30.58 in 10.0 mi West 8.1 mph - N/A   Clear
7:53 AM -9.0 °F -29.3 °F -20.0 °F 59% 30.59 in 10.0 mi West 12.7 mph - N/A   Clear
8:53 AM -7.1 °F -22.8 °F -18.0 °F 59% 30.61 in 10.0 mi West 8.1 mph - N/A   Clear
9:53 AM -4.0 °F -25.2 °F -17.0 °F 54% 30.61 in 10.0 mi NW 16.1 mph 21.9 mph N/A   Clear
10:53 AM -2.0 °F -22.6 °F -16.1 °F 51% 30.61 in 10.0 mi NW 16.1 mph - N/A   Partly Cloudy
11:53 AM -0.9 °F -22.4 °F -14.1 °F 54% 30.58 in 10.0 mi NW 18.4 mph 23.0 mph N/A   Partly Cloudy
12:53 PM 1.0 °F -18.0 °F -14.1 °F 49% 30.57 in 10.0 mi WNW 15.0 mph - N/A   Partly Cloudy
1:53 PM 1.9 °F -18.7 °F -13.0 °F 50% 30.56 in 10.0 mi WNW 18.4 mph 21.9 mph N/A   Scattered Clouds
2:53 PM 1.9 °F -11.8 °F -11.9 °F 52% 30.55 in 10.0 mi West 8.1 mph - N/A   Scattered Clouds
3:53 PM 3.9 °F -11.3 °F -11.0 °F 50% 30.55 in 10.0 mi WNW 10.4 mph - N/A   Scattered Clouds
4:53 PM 3.9 °F -10.4 °F -11.0 °F 50% 30.54 in 10.0 mi WNW 9.2 mph - N/A   Partly Cloudy
5:53 PM 1.0 °F -10.3 °F -11.9 °F 55% 30.53 in 10.0 mi West 5.8 mph - N/A   Clear
6:53 PM -2.9 °F -15.0 °F -11.9 °F 65% 30.53 in 10.0 mi SSW 5.8 mph - N/A   Clear
7:53 PM -2.0 °F -16.6 °F -11.0 °F 66% 30.53 in 10.0 mi SSW 8.1 mph - N/A   Clear
8:53 PM -2.9 °F -17.7 °F -13.0 °F 62% 30.52 in 10.0 mi SSW 8.1 mph - N/A   Clear
9:53 PM -4.0 °F -20.2 °F -13.0 °F 65% 30.49 in 10.0 mi SSW 9.2 mph - N/A   Clear
10:53 PM -2.9 °F -17.7 °F -11.0 °F 68% 30.47 in 10.0 mi SSW 8.1 mph - N/A   Clear
11:53 PM -4.0 °F -19.0 °F -11.0 °F 72% 30.45 in 10.0 mi SSW 8.1 mph - N/A   Clear